Find Starlink 34095

NORAD ID: 63809 Int'l Des: 2025-092 Owner: SPXS Country: US Constellation: starlink operational
LEOCIRCULAR

当前视图

正在加载3D地球...

About Starlink 34095

Starlink 34095 (NORAD 63809) is a starlink constellation satellite (v2 mini) launched May 4, 2025 by SPXS of US. It operates in LEO, CIRCULAR orbit with a mass of 575.00 kg.

关于 Starlink 34095

正在加载描述...

即将过境

Passes for default location (London). Set your location on the main map for personalized predictions.

高度历史

Loading altitude history...

两行轨道根数

1 63809U 25092F 26191.05184090 .00012779 00000-0 47268-3 0 9996
2 63809 42.9968 201.9176 0001634 284.4041 75.6629 15.27607420 67326
Epoch: Jul 10, 2026 • Age: 16 hours

当前状态

高度 486.1 km
远地点 / 近地点 N/A
速度 7.63 km/s
星下点 38.23°N, 130.72°E
发射日期 May 4, 2025
运行时间 1.1 years
类型 internet

技术详情

分类 Payload
质量 575.00 kg
干质量 530.00 kg
总质量 575.00 kg
长度 0.30 m
直径 4.10 m
跨度 29.00 m
形状 Box + pan
制造商 SPXS
平台类型 Starlink V2MO
阶段状态 In Orbit
所有者/国家 SPXS/US

Most Searched